Location: Unspecified
(0.0000°N, 0.0000°E)
Time: 16:49:55
(UTC+00:00)

Vanguard 3 - Pass Details

Date: 02 February 2023
Orbit: 509 x 3249 km, 33.3° (Epoch: 20 March)

Event Time Altitude Azimuth Distance (km) Brightness Sun altitude
Rises 18:15:31 0° 295° (WNW) 3,751 11.4 -0.4°
Reaches altitude 10° 18:19:43 10° 321° (NW) 3,288 10.6 -1.4°
Maximum altitude 18:23:33 13° 349° (N) 3,459 10.3 -2.4°
Drops below altitude 10° 18:28:18 10° 15° (NNE) 4,257 10.5 -3.5°
Sets 18:35:43 0° 37° (NE) 5,989 11.1 -5.3°
